Location: downtown San Diego
(32.7310°N, 117.1990°W)
Time: 18:17:09
(UTC-07:00)

Cosmos 2082 Rocket - Pass Details

Date: 19 May 2017
Orbit: 832 x 855 km, 71.0° (Epoch: 23 September)

Event Time Altitude Azimuth Distance (km) Brightness Sun altitude
Exits shadow 23:46:06 35° 13° (NNE) 1,329 3.5 -35.4°
Drops below altitude 10° 23:49:18 10° 18° (NNE) 2,466 5.2 -35.6°
Sets 23:51:45 0° 20° (NNE) 3,400 6.0 -35.7°
